Regional Weather Roundup
Issued by NWS Northern Indiana

Home | Current Version | Previous Version | Text Only | Print | Product List | Glossary Off
Versions: 1 2 3 4 5 6 7 8 9 10 11 12 13 14 15 16 17 18 19 20 21 22 23 24 25 26 27 28 29 30 31 32 33 34 35 36 37 38 39 40 41 42 43 44 45 46 47 48 49 50

000
ASUS43 KIWX 250400
RWRIWX

KIWX WEATHER ROUNDUP
NATIONAL WEATHER SERVICE NORTHERN INDIANA
1100 PM EST SAT JAN 24 2015

NOTE: "FAIR" INDICATES FEW OR NO CLOUDS BELOW 12,000 FEET WITH NO
SIGNIFICANT WEATHER AND/OR OBSTRUCTIONS TO VISIBILITY.

* THESE STATIONS ARE NOT UNDER NWS QUALITY CONTROL. THEY ALSO MAY NOT
  REPORT WEATHER SUCH AS PRECIPITATION OR FOG.

INZ001>027-250500-
NORTHERN INDIANA

CITY           SKY/WX    TMP DP  RH WIND       PRES   REMARKS
GARY*          MOCLDY    32  28  86 CALM      29.69S FOG
SOUTH BEND     CLOUDY    36  33  89 CALM      29.69R
GOSHEN         CLOUDY    36  32  85 SW5       29.69R
ANGOLA*        CLOUDY    36  25  64 CALM      29.67F
FORT WAYNE     CLOUDY    35  33  92 SW8       29.70F WCI  29
PERU/GRISSOM   PTCLDY    33  31  94 SW8       29.70S WCI  26

$$
INZ028>050-250500-
CENTRAL INDIANA

CITY           SKY/WX    TMP DP  RH WIND       PRES   REMARKS
LAFAYETTE      PTCLDY    34  32  92 SW3       29.71S
KOKOMO*        PTCLDY    36  28  75 SW10      29.71S
MUNCIE*        PTCLDY    36  30  79 SW9       29.71F
INDIANAPOLIS   FAIR      29  27  92 SW7       29.73F WCI  22

$$
MIZ043>046-050>051-056>058-064>065-071>073-077>080-250500-
SOUTHWEST LOWER MICHIGAN

CITY           SKY/WX    TMP DP  RH WIND       PRES   REMARKS
BATTLE CREEK   CLOUDY    37  31  78 W5        29.66F
BENTON HARBOR  CLOUDY    35  34  96 W7        29.68R FOG     WCI  29
COLDWATER*     CLOUDY    34  32  92 SW5       29.66F WCI  30
HILLSDALE*     CLOUDY    35  32  88 CALM      29.66F
HOLLAND        CLOUDY    38  33  82 W5        29.68R
GRAND RAPIDS   FLURRIES  36  32  85 CALM      29.66S
KALAMAZOO      CLOUDY    35  30  82 SW3       29.67S
STURGIS*       CLOUDY    34  32  93 S5        29.67S WCI  30
THREE RIVERS*  CLOUDY    35  31  84 SW3       29.68R

$$
OHZ001>008-015>018-024>025-250500-
NORTHWEST OHIO

CITY           SKY/WX    TMP DP  RH WIND       PRES   REMARKS
DEFIANCE       CLOUDY    35  32  88 S5        29.70F WCI  31
FINDLAY        CLOUDY    36  31  82 SW9       29.70S
TOLEDO EXPRESS CLOUDY    35  30  82 SW9       29.68F WCI  28
TOLEDO METCALF CLOUDY    35  30  82 SW6       29.70F WCI  30
LIMA           CLOUDY    37  30  75 SW9       29.71S

$$
AND FOR LAKE MICHIGAN COASTAL AND OPEN LAKE BUOY OBSERVATIONS

STATION/POSITION TEMP    WIND        PRES    VSBY  WAVE
                 AIR SEA DIR/SP/G                  HT/PER
                 (F)     (DEG/KT/KT) (MB)    (MI)  (FT/S)
CALUMET HARBOR    33      10/  4/  4   N/A
MICHIGAN CITY     34     270/  6/  6   N/A
SAINT JOSEPH      35     180/  4/  8 1005.4F

$$
&&



USA.gov is the U.S. government's official web portal to all federal, state and local government web resources and services.